Regional Weather Roundup
Issued by NWS

Home | Current Version | Previous Version | Graphics & Text | Print | Product List | Glossary On
Versions: 1 2 3 4 5 6 7 8 9 10 11 12 13 14 15 16 17 18 19 20 21 22 23 24 25 26 27 28 29 30 31 32 33 34 35 36 37 38 39 40 41 42 43 44 45 46 47 48 49 50
000
ASUS44 KMEG 240010
RWRTN
TENNESSEE HOURLY STATE WEATHER ROUNDUP
NATIONAL WEATHER SERVICE MEMPHIS TN
700 PM CDT SAT MAY 23 2015

TNZ002-004-019-021-049-052-054-088>092-240100-
WEST TENNESSEE

CITY           SKY/WX    TMP DP  RH WIND       PRES   REMARKS
MEMPHIS INTL   MOSUNNY   82  54  37 SE10      30.15F
NWS MEMPHIS      N/A     80 N/A N/A MISG        N/A
JACKSON        MOSUNNY   78  59  51 CALM      30.18F
DYERSBURG      SUNNY     79  48  34 SE8       30.17F
PARIS          SUNNY     75  54  46 E7        30.21S
LEXINGTON      CLEAR     79  55  44 SE3       30.19F
$$

TNZ008-025-027-028-033-062-065-066-240100-
NORTH MIDDLE TENNESSEE

CITY           SKY/WX    TMP DP  RH WIND       PRES   REMARKS
NASHVILLE      PTCLDY    79  52  38 S9        30.23F
CLARKSVILLE    PTCLDY    76  55  48 SE3       30.22S
SMYRNA         CLEAR     80  55  42 S5        30.24S
COOKEVILLE     CLEAR     77  55  47 SE3       30.25F
CROSSVILLE     PTCLDY    73  53  49 SE3       30.31F
$$

TNZ061-075-076-078-094-096-097-240100-
SOUTH MIDDLE TENNESSEE

CITY           SKY/WX    TMP DP  RH WIND       PRES   REMARKS
FAYETTEVILLE   CLEAR    N/A N/A N/A MISG      30.25S
TULLAHOMA      CLEAR     75  52  43 S5        30.27S
WINCHESTER     PTCLDY    77  55  47 SE7       30.26S
MCMINNVILLE    CLEAR     79  55  44 SE3       30.26S
COLUMBIA       CLEAR     81  57  44 SE5       30.22R
SHELBYVILLE    CLEAR     79  55  44 SE6       30.25S
$$

TNZ017-018-042-046-047-240100-
NORTHEAST TENNESSEE

CITY           SKY/WX    TMP DP  RH WIND       PRES   REMARKS
TRI CITIES     PTCLDY    78  45  30 CALM      30.31F
ELIZABETHTON   CLEAR     68  50  52 CALM      30.32S
$$

TNZ012-013-036-069-073-074-240100-
CENTRAL EAST TENNESSEE

CITY           SKY/WX    TMP DP  RH WIND       PRES   REMARKS
KNOXVILLE      PTCLDY    77  53  43 NE5       30.28S
OAK RIDGE      PTCLDY    79  53  40 CALM      30.29F
GATLINBURG     CLEAR     73  54  49 CALM      30.29R
MORRISTOWN     MOCLDY    73  54  49 CALM      30.31S
$$

TNZ083-085-099-240100-
SOUTHEAST TENNESSEE

CITY           SKY/WX    TMP DP  RH WIND       PRES   REMARKS
CHATTANOOGA    PTCLDY    80  49  33 S7        30.27S
$$

SKY/WX REPORTED AS FAIR MEANS FEW OR NO CLOUDS BELOW
12 THOUSAND FEET.




USA.gov is the U.S. government's official web portal to all federal, state and local government web resources and services.